Weather History for K5M9 - August, 2014

Change the Weather History Date:

Friday, August 22, 2014

  Actual Average (KPAH) Record (KPAH)
Temperature  
Mean Temperature 82 °F 77 °F  
Max Temperature 92 °F 89 °F 101 °F (1987)
Min Temperature 73 °F 66 °F 50 °F (1956)
Degree Days  
Heating Degree Days 0 0  
Month to date heating degree days 0  
Since 1 June heating degree days 4  
Since 1 July heating degree days 0  
Cooling Degree Days 18 12  
Month to date cooling degree days 284  
Year to date cooling degree days 1207  
Since 1 June cooling degree days 1035  
Growing Degree Days 32 (Base 50)    
Moisture  
Dew Point 73 °F    
Average Humidity 78    
Maximum Humidity 96    
Minimum Humidity 51    
Precipitation  
Precipitation 0.00 in 0.09 in 1.26 in (1964)
Month to date precipitation 2.00  
Year to date precipitation 31.72  
Snow  
Snow 0.00 in 0.00 in 0.00 in (2002)
Month to date snowfall 0.0  
Since 1 June snowfall 0.0  
Since 1 July snowfall 0.0  
Snow Depth -    
Sea Level Pressure  
Sea Level Pressure 30.02 in    
Wind  
Wind Speed 5 mph (SW)    
Max Wind Speed 13 mph    
Max Gust Speed -    
Visibility 10 miles    
Events      
T = Trace of Precipitation, MM = Missing Value Source: NWS Daily Summary

Daily Weather History Graph

Daily Weather History Graph

Search for Another Location

Airport or City:

Trip Planner

Search our weather history database for the weather conditions in past years. The results will help you decide how hot, cold, wet, or windy it might be!

Date:

Astronomy

Aug. 22, 2014 Rise Set
Actual Time 6:14 AM CDT 7:35 PM CDT
Civil Twilight 5:47 AM CDT 8:02 PM CDT
Nautical Twilight 5:14 AM CDT 8:35 PM CDT
Astronomical Twilight 4:40 AM CDT 9:09 PM CDT
Moon 3:38 AM CDT (8/22) 5:42 PM CDT (8/22)
Length of Visible Light 14h 15m
Length of Day
13h 20m
Waning Crescent, 7% of the Moon is Illuminated
Aug 22
Waning Crescent
Aug 25
New
Sep 2
First Quarter
Sep 8
Full
Sep 15
Last Quarter

Hourly Weather History & Observations

Time (CDT) Temp. Heat Index Dew Point Humidity Pressure Visibility Wind Dir Wind Speed Gust Speed Precip Events Conditions
12:15 AM 76.3 °F - 72.7 °F 89% 30.06 in 10.0 mi SW 3.5 mph - N/A   Clear
12:55 AM 76.3 °F - 72.7 °F 89% 30.06 in 10.0 mi SW 4.6 mph - N/A   Clear
1:15 AM 76.1 °F - 72.5 °F 89% 30.05 in 10.0 mi SSW 3.5 mph - N/A   Clear
1:35 AM 75.6 °F - 72.5 °F 90% 30.04 in 10.0 mi SW 4.6 mph - N/A   Clear
1:55 AM 75.6 °F - 72.5 °F 90% 30.03 in 10.0 mi SW 4.6 mph - N/A   Clear
2:15 AM 75.4 °F - 72.5 °F 91% 30.02 in 10.0 mi Calm Calm - N/A   Clear
2:35 AM 74.8 °F - 72.5 °F 92% 30.01 in 10.0 mi SSW 4.6 mph - N/A   Clear
2:55 AM 74.7 °F - 72.5 °F 93% 30.00 in 10.0 mi SSW 4.6 mph - N/A   Clear
3:15 AM 74.3 °F - 72.5 °F 94% 30.00 in 10.0 mi SSW 4.6 mph - N/A   Clear
3:35 AM 73.9 °F - 72.5 °F 95% 30.01 in 10.0 mi SSW 4.6 mph - N/A   Clear
3:55 AM 74.1 °F - 72.5 °F 95% 30.00 in 10.0 mi SSW 3.5 mph - N/A   Clear
4:15 AM 74.3 °F - 72.5 °F 94% 29.99 in 10.0 mi SSW 4.6 mph - N/A   Clear
4:35 AM 73.8 °F - 72.5 °F 96% 29.99 in 10.0 mi SSW 3.5 mph - N/A   Clear
4:55 AM 73.8 °F - 72.5 °F 96% 30.00 in 10.0 mi SW 4.6 mph - N/A   Clear
5:15 AM 74.3 °F - 72.5 °F 94% 30.01 in 10.0 mi SW 5.8 mph - N/A   Clear
5:35 AM 74.3 °F - 72.5 °F 94% 30.03 in 10.0 mi WSW 5.8 mph - N/A   Clear
5:55 AM 74.3 °F - 72.5 °F 94% 30.03 in 10.0 mi WSW 5.8 mph - N/A   Clear
6:15 AM 73.9 °F - 72.5 °F 95% 30.03 in 10.0 mi SW 4.6 mph - N/A   Clear
6:35 AM 73.6 °F - 72.1 °F 95% 30.04 in 10.0 mi SW 5.8 mph - N/A   Clear
6:55 AM 74.1 °F - 72.5 °F 95% 30.05 in 10.0 mi SW 5.8 mph - N/A   Clear
7:15 AM 74.8 °F - 72.7 °F 93% 30.05 in 10.0 mi SSW 4.6 mph - N/A   Clear
7:35 AM 74.5 °F - 72.7 °F 94% 30.06 in 10.0 mi SSW 3.5 mph - N/A   Clear
7:55 AM 75.2 °F - 73.0 °F 93% 30.07 in 10.0 mi SSW 5.8 mph - N/A   Clear
8:15 AM 76.6 °F - 73.6 °F 90% 30.06 in 10.0 mi SSW 3.5 mph - N/A   Clear
8:35 AM 78.1 °F - 73.9 °F 87% 30.06 in 10.0 mi SW 8.1 mph - N/A   Clear
8:55 AM 79.0 °F - 73.9 °F 84% 30.07 in 10.0 mi WSW 5.8 mph - N/A   Clear
9:15 AM 80.1 °F 84.6 °F 74.3 °F 82% 30.08 in 10.0 mi WSW 9.2 mph - N/A   Clear
9:35 AM 81.5 °F 87.6 °F 74.7 °F 80% 30.07 in 10.0 mi WSW 6.9 mph - N/A   Clear
9:55 AM 82.4 °F 89.0 °F 74.7 °F 77% 30.08 in 10.0 mi SW 5.8 mph - N/A   Clear
10:15 AM 84.0 °F 91.9 °F 75.0 °F 74% 30.08 in 10.0 mi WSW 6.9 mph - N/A   Clear
10:35 AM 85.5 °F 93.8 °F 74.7 °F 70% 30.08 in 10.0 mi West 12.7 mph - N/A   Clear
10:55 AM 86.2 °F 95.1 °F 75.0 °F 69% 30.07 in 10.0 mi WSW 9.2 mph - N/A   Clear
11:15 AM 86.5 °F 95.5 °F 74.8 °F 68% 30.06 in 10.0 mi WSW 5.8 mph - N/A   Clear
11:35 AM 86.9 °F 96.4 °F 75.4 °F 68% 30.06 in 10.0 mi West 5.8 mph - N/A   Clear
11:55 AM 87.3 °F 96.8 °F 75.2 °F 67% 30.06 in 10.0 mi WSW 5.8 mph - N/A   Mostly Cloudy
12:15 PM 87.6 °F 98.7 °F 76.5 °F 69% 30.05 in 10.0 mi SSW 5.8 mph - N/A   Scattered Clouds
12:35 PM 88.3 °F 98.4 °F 75.2 °F 65% 30.05 in 10.0 mi SW 5.8 mph - N/A   Clear
12:55 PM 88.9 °F 100.9 °F 76.6 °F 67% 30.05 in 10.0 mi WSW 5.8 mph - N/A   Scattered Clouds
1:15 PM 87.8 °F 98.6 °F 75.9 °F 68% 30.04 in 10.0 mi SW 4.6 mph - N/A   Scattered Clouds
1:35 PM 88.5 °F 98.8 °F 75.6 °F 65% 30.04 in 10.0 mi Calm Calm - N/A   Scattered Clouds
1:55 PM 90.3 °F 101.0 °F 75.2 °F 61% 30.03 in 10.0 mi West 5.8 mph - N/A   Scattered Clouds
2:15 PM 91.2 °F 102.0 °F 75.2 °F 59% 30.02 in 10.0 mi SW 5.8 mph - N/A   Scattered Clouds
2:35 PM 91.4 °F 102.5 °F 75.0 °F 59% 30.01 in 10.0 mi SW 6.9 mph - N/A   Scattered Clouds
2:55 PM 91.6 °F 102.3 °F 74.7 °F 58% 30.00 in 10.0 mi WSW 8.1 mph - N/A   Clear
3:15 PM 91.9 °F 101.3 °F 73.9 °F 55% 29.99 in 10.0 mi WSW 9.2 mph - N/A   Scattered Clouds
3:35 PM 92.5 °F 101.3 °F 72.9 °F 53% 29.98 in 10.0 mi WSW 5.8 mph - N/A   Scattered Clouds
3:55 PM 91.4 °F 98.9 °F 72.1 °F 53% 29.98 in 10.0 mi SW 4.6 mph - N/A   Scattered Clouds
4:15 PM 91.8 °F 98.6 °F 71.2 °F 51% 29.98 in 10.0 mi SSW 6.9 mph - N/A   Mostly Cloudy
4:35 PM 91.2 °F 97.5 °F 70.9 °F 51% 29.98 in 10.0 mi SW 5.8 mph - N/A   Scattered Clouds
4:55 PM 89.8 °F 96.0 °F 71.2 °F 54% 29.97 in 10.0 mi WSW 6.9 mph - N/A   Scattered Clouds
5:15 PM 89.6 °F 96.2 °F 71.6 °F 55% 29.97 in 10.0 mi SW 5.8 mph - N/A   Scattered Clouds
5:35 PM 88.9 °F 96.1 °F 72.5 °F 58% 29.97 in 10.0 mi SW 6.9 mph - N/A   Clear
5:55 PM 88.3 °F 95.4 °F 72.5 °F 59% 29.97 in 10.0 mi SW 5.8 mph - N/A   Clear
6:15 PM 87.4 °F 95.3 °F 73.4 °F 63% 29.97 in 10.0 mi WSW 4.6 mph - N/A   Clear
6:55 PM 84.7 °F 92.1 °F 74.1 °F 70% 29.97 in 10.0 mi SW 4.6 mph - N/A   Clear
7:15 PM 85.5 °F 92.6 °F 73.4 °F 67% 29.96 in 10.0 mi WSW 5.8 mph - N/A   Clear
7:35 PM 84.7 °F 91.7 °F 73.4 °F 69% 29.96 in 10.0 mi WSW 4.6 mph - N/A   Clear
7:55 PM 84.0 °F 90.2 °F 73.0 °F 69% 29.97 in 10.0 mi WSW 4.6 mph - N/A   Clear
8:15 PM 82.2 °F 88.0 °F 73.4 °F 75% 29.98 in 10.0 mi WSW 3.5 mph - N/A   Clear
8:55 PM 80.6 °F 85.5 °F 73.9 °F 80% 29.99 in 10.0 mi Calm Calm - N/A   Clear
9:15 PM 80.2 °F 84.9 °F 73.9 °F 81% 30.00 in 7.0 mi SSW 3.5 mph - N/A   Clear
9:35 PM 80.1 °F 84.5 °F 73.6 °F 81% 30.01 in 10.0 mi SSW 3.5 mph - N/A   Clear
9:55 PM 79.7 °F - 73.8 °F 82% 30.01 in 10.0 mi SW 3.5 mph - N/A   Clear
10:15 PM 79.0 °F - 73.8 °F 84% 30.00 in 10.0 mi SSW 3.5 mph - N/A   Clear
10:35 PM 78.4 °F - 73.9 °F 86% 30.00 in 10.0 mi SSW 3.5 mph - N/A   Clear
10:55 PM 77.4 °F - 73.9 °F 89% 30.00 in 10.0 mi South 3.5 mph - N/A   Clear
11:15 PM 77.4 °F - 73.9 °F 89% 29.99 in 10.0 mi SSW 3.5 mph - N/A   Scattered Clouds
11:35 PM 78.4 °F - 73.8 °F 85% 29.99 in 7.0 mi SSW 3.5 mph - N/A   Clear